Terug naar catalogus

STARLINK-33849

ActiefCommunicatieVLEO
NORAD 63654·PAYLOAD·🇺🇸 United States

Gelanceerd Apr 25, 2025 vanaf Cape Canaveral Space Force Station

Loading…

Volgende Passages (komende 24 uur)

TLE

VersSource: CelesTrak SupGP

Epoch: Sep 15, 2026, 02:56 UTC

1 63654C 25083W   26258.12270833  .00012370  00000+0  44799-3 0  2587
2 63654  43.0039  15.5660 0001653 265.9761 183.0378 15.27576053    11

Volg STARLINK-33849 in realtime met AllMySat

Download on the App Store